Terminal Aerodrome Forecast
Issued by NWS Charleston, WV

Current Version | Previous Version | Text Only | Print | Product List | Glossary Off
Versions: 1 2 3 4 5 6 7 8 9 10 11 12 13 14 15 16 17 18 19 20 21 22 23 24 25 26 27

000
FTUS41 KRLX 261700
TAFHTS
TAF
KHTS 261739Z 2618/2718 31009G15KT 3SM -RA BR OVC010
     FM262100 35008G13KT 3SM RA BR OVC010
     FM270000 VRB03KT 4SM RA BR OVC010
     FM270200 34005KT P6SM OVC010
     FM270400 33005KT P6SM BKN015
     FM270900 33006KT P6SM SCT015
     FM271300 33006KT P6SM SCT025
     FM271600 33007KT P6SM BKN035=

USA.gov is the U.S. government's official web portal to all federal, state and local government web resources and services.